EW9154 Weather Reports


time (UTC)temp
C
wind
direction
speed
KPH
gust
KPH
rain 1hr
cm
rain 24hr
cm
rain mn
cm
humidity
%
barometer
mb
20260905202815 28 59 0.0 9.7 0.00 0.00 0.00 70 1029.1
20260905202248 28 5 0.0 9.7 0.00 0.00 0.00 70 1029.1
20260905202014 28 65 0.0 4.8 0.00 0.00 0.00 71 1029.3
20260905201239 28 68 0.0 8.0 0.00 0.00 0.00 71 1029.4
20260905200727 28 79 0.0 8.0 0.00 0.00 0.00 70 1029.4
20260905200224 28 63 0.0 6.4 0.00 0.00 0.00 70 1029.8
20260905195723 28 98 0.0 6.4 0.00 0.00 0.00 71 1030.0
20260905195155 28 80 0.0 4.8 0.00 0.00 0.00 71 1030.0
20260905194924 28 102 0.0 1.6 0.00 0.00 0.00 71 1030.1
20260905194128 28 108 0.0 1.6 0.00 0.00 0.00 72 1030.1
20260905193605 28 86 0.0 0.0 0.00 0.00 0.00 73 1030.1
20260905193109 27 24 0.0 0.0 0.00 0.00 0.00 73 1030.2
20260905192543 27 70 0.0 4.8 0.00 0.00 0.00 73 1030.3
20260905192014 27 29 0.0 0.0 0.00 0.00 0.00 72 1030.4
20260905191745 27 29 0.0 0.0 0.00 0.00 0.00 72 1030.6
20260905191007 27 29 0.0 0.0 0.00 0.00 0.00 73 1030.6
20260905190504 27 28 0.0 0.0 0.00 0.00 0.00 73 1030.7
20260905185955 27 28 0.0 0.0 0.00 0.00 0.00 72 1030.8
20260905185426 27 28 0.0 0.0 0.00 0.00 0.00 71 1030.9
20260905184923 28 165 0.0 0.0 0.00 0.00 0.00 71 1030.8
20260905184423 28 138 0.0 0.0 0.00 0.00 0.00 71 1030.9
20260905183854 28 136 0.0 0.0 0.00 0.00 0.00 71 1030.7
20260905183353 28 136 0.0 0.0 0.00 0.00 0.00 71 1030.9
20260905182827 27 211 0.0 0.0 0.00 0.00 0.00 73 1030.8
20260905182322 27 211 0.0 0.0 0.00 0.00 0.00 73 1030.9
20260905182051 27 169 0.0 0.0 0.00 0.00 0.00 74 1031.0
20260905181522 26 187 0.0 0.0 0.00 0.00 0.00 77 1030.9
20260905181019 26 117 0.0 1.6 0.00 0.00 0.00 78 1031.0
20260905180518 26 181 0.0 0.0 0.00 0.00 0.00 78 1031.1
20260905175739 26 127 0.0 0.0 0.00 0.00 0.00 80 1031.2
20260905175213 25 191 0.0 0.0 0.00 0.00 0.00 80 1031.2
20260905174647 25 185 0.0 0.0 0.00 0.00 0.00 82 1031.2
20260905174353 25 124 0.0 0.0 0.00 0.00 0.00 83 1031.2
20260905173554 24 173 0.0 0.0 0.00 0.00 0.00 84 1031.5
20260905173038 24 205 0.0 0.0 0.00 0.00 0.00 85 1031.6
20260905172815 23 178 0.0 4.8 0.00 0.00 0.00 86 1031.6
20260905172009 23 101 0.0 4.8 0.00 0.00 0.00 87 1031.7
20260905171718 23 90 0.0 4.8 0.00 0.00 0.00 87 1031.7
20260905170918 23 80 0.0 4.8 0.00 0.00 0.00 87 1031.8
20260905170416 23 103 0.0 0.0 0.00 0.00 0.00 88 1031.8
20260905165900 23 86 0.0 0.0 0.00 0.00 0.00 89 1031.8
20260905165359 23 113 0.0 0.0 0.00 0.00 0.00 90 1031.8
20260905164837 22 113 0.0 1.6 0.00 0.00 0.00 90 1031.7
20260905164309 22 109 0.0 3.2 0.00 0.00 0.00 91 1031.7
20260905163807 22 88 0.0 3.2 0.00 0.00 0.00 91 1032.0
20260905163246 22 69 0.0 0.0 0.00 0.00 0.00 92 1031.8
20260905162746 22 66 0.0 0.0 0.00 0.00 0.00 93 1032.0
20260905162248 22 88 0.0 0.0 0.00 0.00 0.00 93 1031.8
20260905161722 22 82 0.0 0.0 0.00 0.00 0.00 94 1031.6
20260905161158 22 102 0.0 0.0 0.00 0.00 0.00 95 1031.5
20260905160630 22 96 0.0 0.0 0.00 0.00 0.00 95 1031.5
20260905160127 22 5 0.0 0.0 0.00 0.00 0.00 95 1031.5
20260905155831 21 68 0.0 0.0 0.00 0.00 0.00 96 1031.5
20260905155045 21 32 0.0 0.0 0.00 0.00 0.00 96 1031.5
20260905154544 21 76 0.0 0.0 0.00 0.00 0.00 97 1031.4
20260905154241 21 58 0.0 0.0 0.00 0.00 0.00 97 1031.5
20260905153442 21 58 0.0 0.0 0.00 0.00 0.00 97 1031.5
20260905152941 21 100 0.0 0.0 0.00 0.00 0.00 97 1031.5
20260905152424 21 100 0.0 0.0 0.00 0.00 0.00 97 1031.7
20260905151926 21 100 0.0 0.0 0.00 0.00 0.00 97 1031.6
20260905151358 21 100 0.0 0.0 0.00 0.00 0.00 97 1031.6
20260905150857 21 100 0.0 0.0 0.00 0.00 0.00 97 1031.4
20260905150352 20 17 0.0 0.0 0.00 0.00 0.00 97 1031.2
20260905145849 20 67 0.0 0.0 0.00 0.00 0.00 97 1031.0
20260905145346 20 13 0.0 0.0 0.00 0.00 0.00 97 1031.0
20260905144848 20 58 0.0 0.0 0.00 0.00 0.00 97 1030.9
20260905144320 20 355 0.0 0.0 0.00 0.00 0.00 97 1030.8
20260905143816 20 19 0.0 0.0 0.00 0.00 0.00 97 1030.9
20260905143314 20 21 0.0 0.0 0.00 0.00 0.00 97 1031.0
20260905142812 20 102 0.0 0.0 0.00 0.00 0.00 97 1030.9
20260905142255 20 24 0.0 0.0 0.00 0.00 0.00 97 1031.0
20260905141755 20 10 0.0 0.0 0.00 0.00 0.00 97 1031.0
20260905141245 20 12 0.0 0.0 0.00 0.00 0.00 97 1030.9
20260905140744 20 20 0.0 0.0 0.00 0.00 0.00 97 1030.9
20260905140247 20 34 0.0 0.0 0.00 0.00 0.00 97 1031.0
20260905135718 20 26 0.0 0.0 0.00 0.00 0.00 97 1030.9
20260905135215 20 30 0.0 0.0 0.00 0.00 0.00 97 1030.9
20260905134704 20 30 0.0 0.0 0.00 0.00 0.00 97 1031.0
20260905134202 20 36 0.0 0.0 0.00 0.00 0.00 97 1031.0
20260905133634 20 39 0.0 0.0 0.00 0.00 0.00 97 1031.1
20260905133135 20 38 0.0 0.0 0.00 0.00 0.00 97 1031.1
20260905132606 20 29 0.0 0.0 0.00 0.00 0.00 97 1031.1
20260905132101 20 28 0.0 0.0 0.00 0.00 0.00 97 1030.9
20260905131537 20 28 0.0 0.0 0.00 0.00 0.00 97 1030.9
20260905131034 20 28 0.0 0.0 0.00 0.00 0.00 97 1030.8
20260905130536 20 28 0.0 0.0 0.00 0.00 0.00 97 1030.8
20260905130255 20 28 0.0 0.0 0.00 0.00 0.00 96 1030.6
20260905125457 20 32 0.0 0.0 0.00 0.00 0.00 96 1030.4
20260905124956 20 32 0.0 0.0 0.00 0.00 0.00 96 1030.3
20260905124431 20 32 0.0 0.0 0.00 0.00 0.00 96 1030.1
20260905124144 19 32 0.0 0.0 0.00 0.00 0.00 96 1029.8
20260905123413 19 28 0.0 0.0 0.00 0.00 0.00 96 1029.4
20260905122904 19 28 0.0 0.0 0.00 0.00 0.00 96 1029.4
20260905122407 19 22 0.0 0.0 0.00 0.00 0.00 96 1029.3
20260905122125 19 39 0.0 0.0 0.00 0.00 0.00 96 1029.4
20260905121356 19 41 0.0 0.0 0.00 0.00 0.00 96 1029.7
20260905120854 19 41 0.0 0.0 0.00 0.00 0.00 96 1029.7
20260905120352 19 38 0.0 0.0 0.00 0.00 0.00 96 1029.9
20260905115829 19 29 0.0 0.0 0.00 0.00 0.00 96 1030.0
20260905115308 19 29 0.0 0.0 0.00 0.00 0.00 96 1030.0
20260905114810 19 29 0.0 0.0 0.00 0.00 0.00 96 1029.9
20260905114241 19 44 0.0 0.0 0.00 0.00 0.00 96 1029.7
20260905113736 19 5 0.0 0.0 0.00 0.00 0.00 96 1029.7
20260905113237 19 5 0.0 1.6 0.00 0.00 0.00 96 1029.4
20260905113007 19 11 0.0 1.6 0.00 0.00 0.00 96 1029.4
20260905112231 19 69 0.0 1.6 0.00 0.00 0.00 96 1029.3
20260905111732 19 88 0.0 1.6 0.00 0.00 0.00 96 1029.2
20260905111215 19 20 0.0 9.7 0.00 0.00 0.00 96 1029.3
20260905110630 19 20 0.0 0.0 0.00 0.00 0.00 96 1029.3
20260905110107 19 13 0.0 0.0 0.00 0.00 0.00 96 1029.4
20260905105548 19 18 0.0 0.0 0.00 0.00 0.00 96 1029.6
20260905105026 19 44 0.0 0.0 0.00 0.00 0.00 96 1029.6
20260905104504 19 17 0.0 0.0 0.00 0.00 0.00 96 1029.3
20260905104002 19 16 0.0 0.0 0.00 0.00 0.00 96 1029.3
20260905103732 19 11 0.0 0.0 0.00 0.00 0.00 96 1029.2
20260905103001 19 11 0.0 0.0 0.00 0.00 0.00 96 1029.3
20260905102500 19 16 0.0 0.0 0.00 0.00 0.00 96 1029.1
20260905102440 19 45 0.0 1.6 0.00 0.00 0.00 96 1029.2
20260905101411 19 63 0.0 0.0 0.00 0.00 0.00 96 1029.1
20260905100844 19 14 0.0 0.0 0.00 0.00 0.00 95 1028.8
20260905100338 19 26 0.0 1.6 0.00 0.00 0.00 95 1028.8
20260905095837 19 38 0.0 1.6 0.00 0.00 0.00 95 1029.1
20260905095315 19 38 0.0 1.6 0.00 0.00 0.00 95 1029.1
20260905094809 19 19 0.0 1.6 0.00 0.00 0.00 95 1028.7
20260905094310 19 22 0.0 1.6 0.00 0.00 0.00 95 1028.4
20260905093743 19 35 0.0 0.0 0.00 0.00 0.00 95 1028.4
20260905093245 19 18 0.0 3.2 0.00 0.00 0.00 95 1028.4
20260905092717 19 19 0.0 3.2 0.00 0.00 0.00 95 1028.4
20260905092213 19 53 0.0 1.6 0.00 0.00 0.00 95 1028.4
20260905091712 19 28 0.0 1.6 0.00 0.00 0.00 95 1028.4
20260905091146 19 21 0.0 1.6 0.00 0.00 0.00 95 1028.5
20260905090631 19 24 0.0 0.0 0.00 0.00 0.00 95 1028.6
20260905090104 19 38 0.0 0.0 0.00 0.00 0.00 95 1028.8
20260905085559 19 48 0.0 0.0 0.00 0.00 0.00 95 1028.9
20260905085030 19 35 0.0 0.0 0.00 0.00 0.00 94 1029.0
20260905084505 19 33 0.0 0.0 0.00 0.00 0.00 94 1028.9
20260905083943 19 31 0.0 0.0 0.00 0.00 0.00 94 1028.8
20260905083432 19 31 0.0 1.6 0.00 0.00 0.00 94 1028.8
20260905082928 19 21 0.0 1.6 0.00 0.00 0.00 94 1028.9
20260905082426 19 22 0.0 1.6 0.00 0.00 0.00 94 1028.8
20260905081857 19 34 0.0 1.6 0.00 0.00 0.00 93 1028.8
20260905081355 19 32 0.0 0.0 0.00 0.00 0.00 93 1028.8
20260905080828 19 355 0.0 0.0 0.00 0.00 0.00 93 1028.8
20260905080536 19 348 0.0 0.0 0.00 0.00 0.00 93 1028.9
20260905075804 19 36 0.0 0.0 0.00 0.00 0.00 93 1029.1
20260905075238 19 36 0.0 0.0 0.00 0.00 0.00 93 1029.0
20260905074711 19 36 0.0 0.0 0.00 0.00 0.00 93 1029.1
20260905074147 19 28 0.0 0.0 0.00 0.00 0.00 92 1029.1
20260905073644 19 30 0.0 0.0 0.00 0.00 0.00 92 1029.0
20260905073147 19 30 0.0 0.0 0.00 0.00 0.00 92 1029.2
20260905072622 20 23 0.0 0.0 0.00 0.00 0.00 92 1029.2
20260905072557 20 28 0.0 0.0 0.00 0.00 0.00 92 1029.0
20260905071800 20 36 0.0 0.0 0.00 0.00 0.00 91 1028.9
20260905071021 20 32 0.0 0.0 0.00 0.00 0.00 91 1029.1
20260905070518 20 22 0.0 0.0 0.00 0.00 0.00 91 1029.2
20260905070238 20 36 0.0 0.0 0.00 0.00 0.00 91 1029.2
20260905065506 20 37 0.0 0.0 0.00 0.00 0.00 91 1029.1
20260905064939 20 32 0.0 0.0 0.00 0.00 0.00 91 1029.2
20260905064413 20 32 0.0 0.0 0.00 0.00 0.00 91 1029.1
20260905063909 20 25 0.0 0.0 0.00 0.00 0.00 90 1029.1
20260905063406 20 34 0.0 0.0 0.00 0.00 0.00 90 1029.1
20260905062858 20 34 0.0 0.0 0.00 0.00 0.00 90 1029.1
20260905062329 20 33 0.0 0.0 0.00 0.00 0.00 90 1029.0
20260905062057 20 33 0.0 0.0 0.00 0.00 0.00 90 1029.0
20260905061301 20 38 0.0 0.0 0.00 0.00 0.00 89 1029.0
20260905060754 20 38 0.0 0.0 0.00 0.00 0.00 89 1029.0
20260905060520 20 38 0.0 0.0 0.00 0.00 0.00 89 1028.9
20260905055727 21 38 0.0 0.0 0.00 0.00 0.00 89 1029.0
20260905055225 21 38 0.0 0.0 0.00 0.00 0.00 89 1028.9
20260905054657 21 38 0.0 0.0 0.00 0.00 0.00 88 1028.8
20260905054154 21 40 0.0 0.0 0.00 0.00 0.00 88 1028.7
20260905053651 21 40 0.0 0.0 0.00 0.00 0.00 88 1028.8
20260905053147 21 40 0.0 0.0 0.00 0.00 0.00 88 1028.9
20260905052627 21 22 0.0 0.0 0.00 0.00 0.00 87 1028.9
20260905052102 21 22 0.0 0.0 0.00 0.00 0.00 87 1028.9
20260905051536 21 18 0.0 0.0 0.00 0.00 0.00 87 1028.8
20260905051015 21 18 0.0 0.0 0.00 0.00 0.00 87 1028.6
20260905050511 21 18 0.0 0.0 0.00 0.00 0.00 87 1028.6
20260905050012 21 29 0.0 0.0 0.00 0.00 0.00 86 1028.6
20260905045516 21 30 0.0 0.0 0.00 0.00 0.00 86 1028.6
20260905045219 22 68 0.0 0.0 0.00 0.00 0.00 86 1028.5
20260905044445 22 17 0.0 0.0 0.00 0.00 0.00 85 1028.4
20260905043922 22 36 0.0 0.0 0.00 0.00 0.00 84 1028.6
20260905043917 22 23 0.0 0.0 0.00 0.00 0.00 85 1028.5
20260905042858 22 28 0.0 0.0 0.00 0.00 0.00 84 1028.6
20260905042401 22 27 0.0 0.0 0.00 0.00 0.00 84 1028.6
20260905041837 22 26 0.0 0.0 0.00 0.00 0.00 83 1028.6
20260905041833 22 22 0.0 0.0 0.00 0.00 0.00 83 1028.5
20260905040803 22 24 0.0 0.0 0.00 0.00 0.00 83 1028.6
20260905040532 22 16 0.0 0.0 0.00 0.00 0.00 83 1028.6
20260905040006 23 24 0.0 0.0 0.00 0.00 0.00 82 1028.6
20260905035506 23 24 0.0 0.0 0.00 0.00 0.00 82 1028.6
20260905034938 23 30 0.0 0.0 0.00 0.00 0.00 82 1028.5
20260905034144 23 40 0.0 0.0 0.00 0.00 0.00 81 1028.6
20260905033615 23 24 0.0 6.4 0.00 0.00 0.00 81 1028.7
20260905033052 23 18 0.0 1.6 0.00 0.00 0.00 80 1028.6
20260905032531 23 30 0.0 1.6 0.00 0.00 0.00 80 1028.5
20260905031940 23 30 0.0 0.0 0.00 0.00 0.00 79 1028.5
20260905031415 23 38 0.0 8.0 0.00 0.00 0.00 79 1028.4
20260905030848 24 40 0.0 17.7 0.00 0.00 0.00 79 1028.3
20260905030343 24 44 0.0 17.7 0.00 0.00 0.00 79 1028.2
20260905025841 24 24 0.0 1.6 0.00 0.00 0.00 78 1028.3
20260905025329 24 65 0.0 1.6 0.00 0.00 0.00 78 1028.2
20260905024827 24 51 0.0 6.4 0.00 0.00 0.00 79 1028.2
20260905024300 25 42 0.0 0.0 0.00 0.00 0.00 79 1028.1
20260905024031 25 32 0.0 1.6 0.00 0.00 0.00 79 1028.0
20260905023229 25 36 0.0 1.6 0.00 0.00 0.00 78 1027.8
20260905022728 25 37 0.0 0.0 0.00 0.00 0.00 78 1027.7
20260905022215 25 33 0.0 0.0 0.00 0.00 0.00 78 1027.7
20260905021714 25 38 0.0 0.0 0.00 0.00 0.00 78 1027.7
20260905021148 25 36 0.0 0.0 0.00 0.00 0.00 77 1027.6
20260905020649 25 45 0.0 0.0 0.00 0.00 0.00 77 1027.6
20260905020418 25 36 0.0 0.0 0.00 0.00 0.00 77 1027.5
20260905015916 25 35 0.0 0.0 0.00 0.00 0.00 77 1027.5
20260905015145 25 32 0.0 0.0 0.00 0.00 0.00 76 1027.4
20260905014648 25 55 0.0 0.0 0.00 0.00 0.00 76 1027.3
20260905014351 26 38 0.0 0.0 0.00 0.00 0.00 76 1027.3
20260905013618 26 38 0.0 0.0 0.00 0.00 0.00 75 1027.3
20260905013116 26 38 0.0 0.0 0.00 0.00 0.00 75 1027.3
20260905012617 26 42 0.0 0.0 0.00 0.00 0.00 74 1027.3
20260905012346 26 42 0.0 0.0 0.00 0.00 0.00 74 1027.3
20260905011617 26 42 0.0 0.0 0.00 0.00 0.00 73 1027.3
20260905011049 26 42 0.0 0.0 0.00 0.00 0.00 73 1027.2
20260905010547 26 44 0.0 0.0 0.00 0.00 0.00 72 1027.2
20260905010020 27 44 0.0 0.0 0.00 0.00 0.00 72 1027.2
20260905005518 27 44 0.0 0.0 0.00 0.00 0.00 71 1027.0
20260905005000 27 44 0.0 0.0 0.00 0.00 0.00 71 1027.0
20260905004734 27 43 0.0 0.0 0.00 0.00 0.00 71 1026.9
20260905003937 27 28 0.0 0.0 0.00 0.00 0.00 71 1027.0
20260905003412 27 34 0.0 0.0 0.00 0.00 0.00 71 1027.0
20260905002846 28 34 0.0 0.0 0.00 0.00 0.00 71 1026.9
20260905002319 28 34 0.0 0.0 0.00 0.00 0.00 71 1027.0
20260905001816 28 34 0.0 0.0 0.00 0.00 0.00 71 1026.9
20260905001259 28 34 0.0 0.0 0.00 0.00 0.00 70 1026.8
20260905000734 28 40 0.0 0.0 0.00 0.00 0.00 70 1026.8
20260905000208 28 40 0.0 0.0 0.00 0.00 0.00 69 1026.8
20260904235639 28 40 0.0 0.0 0.00 0.00 0.00 69 1026.8
20260904235408 28 42 0.0 0.0 0.00 0.00 0.00 68 1026.8
20260904234640 28 42 0.0 0.0 0.00 0.00 0.00 67 1026.8
20260904234104 28 51 0.0 0.0 0.00 0.00 0.00 67 1026.8
20260904233535 29 52 0.0 0.0 0.00 0.00 0.00 66 1026.7
20260904233036 29 35 0.0 0.0 0.00 0.00 0.00 66 1026.7
20260904232507 29 35 0.0 0.0 0.00 0.00 0.00 65 1026.7
20260904231944 29 36 0.0 0.0 0.00 0.00 0.00 64 1026.7
20260904231435 30 31 0.0 0.0 0.00 0.00 0.00 63 1026.6
20260904230936 30 42 0.0 0.0 0.00 0.00 0.00 62 1026.6
20260904230421 30 41 0.0 0.0 0.00 0.00 0.00 62 1026.5
20260904225924 30 39 0.0 0.0 0.00 0.00 0.00 61 1026.5
20260904225419 31 5 0.0 0.0 0.00 0.00 0.00 61 1026.5
20260904224918 31 42 0.0 0.0 0.00 0.00 0.00 60 1026.5
20260904224357 31 30 0.0 0.0 0.00 0.00 0.00 60 1026.5
20260904223835 31 53 0.0 0.0 0.00 0.00 0.00 60 1026.4
20260904223337 31 53 0.0 0.0 0.00 0.00 0.00 59 1026.4
20260904222814 32 22 0.0 0.0 0.00 0.00 0.00 59 1026.4
20260904222544 32 42 0.0 0.0 0.00 0.00 0.00 60 1026.4
20260904221816 32 39 0.0 0.0 0.00 0.00 0.00 59 1026.4
20260904221529 32 41 0.0 0.0 0.00 0.00 0.00 61 1026.3
20260904220720 31 51 0.0 0.0 0.00 0.00 0.00 61 1026.2
20260904220218 31 35 0.0 0.0 0.00 0.00 0.00 60 1026.2
20260904215656 32 49 0.0 0.0 0.00 0.00 0.00 60 1026.1
20260904215130 32 59 0.0 0.0 0.00 0.00 0.00 61 1026.0
20260904214607 31 60 0.0 0.0 0.00 0.00 0.00 61 1026.0
20260904214322 32 40 0.0 0.0 0.00 0.00 0.00 61 1025.9
20260904213550 32 27 0.0 0.0 0.00 0.00 0.00 63 1026.0
20260904213048 31 22 0.0 0.0 0.00 0.00 0.00 63 1026.0
20260904212548 31 32 0.0 0.0 0.00 0.00 0.00 62 1026.0
20260904212047 31 115 0.0 0.0 0.00 0.00 0.00 65 1026.0
20260904211818 31 47 0.0 0.0 0.00 0.00 0.00 65 1026.1
20260904211320 31 39 0.0 0.0 0.00 0.00 0.00 64 1026.1
20260904210801 31 60 0.0 1.6 0.00 0.00 0.00 64 1026.1
20260904210028 31 42 0.0 1.6 0.00 0.00 0.00 66 1026.1
20260904205528 31 38 0.0 0.0 0.00 0.00 0.00 64 1026.2
20260904205005 31 37 0.0 0.0 0.00 0.00 0.00 66 1026.2
20260904204721 30 46 0.0 0.0 0.00 0.00 0.00 66 1026.2
20260904203950 30 41 0.0 0.0 0.00 0.00 0.00 66 1026.2
20260904203716 31 42 0.0 0.0 0.00 0.00 0.00 66 1026.1